Weather reports worldwide

Advertisment
De Kooy, Netherlands (6235): temperature & dewpoint: 15.09.2020 02:00:00 - 21.09.2020 02:00:00 (CEST)De Kooy, Netherlands (6235): temperature 5cm: 15.09.2020 02:00:00 - 21.09.2020 02:00:00 (CEST)De Kooy, Netherlands (6235): wind speed & gusts: 15.09.2020 02:00:00 - 21.09.2020 02:00:00 (CEST)De Kooy, Netherlands (6235): wind direction: 15.09.2020 02:00:00 - 21.09.2020 02:00:00 (CEST)De Kooy, Netherlands (6235): reduced air pressure: 15.09.2020 02:00:00 - 21.09.2020 02:00:00 (CEST)De Kooy, Netherlands (6235): visibility: 15.09.2020 02:00:00 - 21.09.2020 02:00:00 (CEST)De Kooy, Netherlands (6235): precipitation: 15.09.2020 02:00:00 - 21.09.2020 02:00:00 (CEST)
Date & Time tt [°C] td [°C] tt 5cm [°C] ff [km/h] ff [kn] fx [km/h] fx [kn] dd ppp [hPa] vv [km] rr [mm]
21.09.2020 02:00:00 15,2 13,9 14,2 18 10 29 16 ENE 1019,4 10 0,0
21.09.2020 01:00:00 15,0 13,9 14,2 24 13 32 18 ENE 1019,6 10 0,0
21.09.2020 00:00:00 14,6 12,9 13,9 18 10 29 16 NE 1019,9 10 0,0
20.09.2020 23:00:00 14,7 12,7 13,8 21 11 29 16 NE 1019,7 10 0,0
20.09.2020 22:00:00 15,1 12,5 14,1 21 11 32 18 ENE 1019,7 10 0,0
20.09.2020 21:00:00 15,4 12,7 14,5 24 13 36 19 NE 1019,7 10 0,0
20.09.2020 20:00:00 15,7 12,8 14,9 24 13 36 19 NE 1019,4 10 0,0
20.09.2020 19:00:00 16,4 13,0 16,0 22 12 40 21 NE 1019,2 10 0,0
20.09.2020 18:00:00 17,3 12,9 17,3 22 12 36 19 NE 1019,3 10 0,0
20.09.2020 17:00:00 17,9 13,1 18,4 22 12 36 19 NNE 1019,4 10 0,0
20.09.2020 16:00:00 18,4 13,1 19,1 21 11 32 18 NNE 1019,4 10 0,0
20.09.2020 15:00:00 18,4 12,2 19,3 22 12 36 19 NE 1019,4 10 0,0
20.09.2020 14:00:00 17,9 12,6 19,3 21 11 32 18 NE 1019,5 10 0,0
20.09.2020 13:00:00 17,3 11,6 18,4 21 11 32 18 NE 1019,9 10 0,0
20.09.2020 12:00:00 16,7 10,8 17,7 22 12 29 16 NE 1020,1 10 0,0
20.09.2020 11:00:00 16,0 10,9 16,5 22 12 32 18 NE 1020,3 10 0,0
20.09.2020 10:00:00 15,1 10,3 15,4 26 14 36 19 ENE 1019,9 10 0,0
20.09.2020 09:00:00 13,8 9,6 13,5 26 14 32 18 ENE 1019,8 10 0,0
20.09.2020 08:00:00 13,2 9,6 12,2 21 11 29 16 ENE 1019,4 10 0,0
20.09.2020 07:00:00 12,7 9,4 11,5 22 12 29 16 ENE 1019,1 10 0,0
20.09.2020 06:00:00 12,8 9,4 11,7 18 10 29 16 ENE 1019,0 10 0,0
20.09.2020 05:00:00 13,3 10,0 12,2 16 9 29 16 ENE 1019,1 10 0,0
20.09.2020 04:00:00 13,8 10,4 12,9 24 13 32 18 ENE 1019,0 10 0,0
20.09.2020 03:00:00 14,1 10,4 13,1 21 11 29 16 ENE 1019,0 10 0,0
20.09.2020 02:00:00 14,6 9,8 13,3 22 12 29 16 ENE 1019,1 10 0,0
20.09.2020 01:00:00 14,9 10,1 13,6 21 11 36 19 E 1019,7 10 0,0
20.09.2020 00:00:00 15,3 10,2 14,2 28 15 36 19 ENE 1019,5 10 0,0
19.09.2020 23:00:00 15,7 10,9 14,6 26 14 36 19 ENE 1019,4 10 0,0
19.09.2020 22:00:00 16,2 11,4 15,2 28 15 40 21 ENE 1019,1 10 0,0
19.09.2020 21:00:00 16,2 12,0 15,2 28 15 40 21 ENE 1018,6 10 0,0
19.09.2020 20:00:00 16,3 12,1 15,6 31 17 40 21 NE 1018,5 10 0,0
19.09.2020 19:00:00 17,0 12,7 16,4 31 17 40 21 NE 1018,4 10 0,0
19.09.2020 18:00:00 17,7 13,6 17,6 31 17 43 23 NE 1018,4 10 0,0
19.09.2020 17:00:00 18,0 13,5 18,2 22 12 40 21 NE 1018,6 10 0,0
19.09.2020 16:00:00 17,9 13,0 18,7 22 12 36 19 NE 1019,1 10 0,0
19.09.2020 15:00:00 18,8 12,2 19,6 26 14 32 18 NE 1019,4 10 0,0
19.09.2020 14:00:00 17,5 11,1 18,9 24 13 32 18 ENE 1020,2 10 0,0
19.09.2020 13:00:00 16,7 10,1 17,7 22 12 32 18 ENE 1020,4 10 0,0
19.09.2020 12:00:00 15,3 9,2 16,3 22 12 29 16 ENE 1020,8 10 0,0
19.09.2020 11:00:00 14,5 8,4 15,1 21 11 29 16 ENE 1021,1 10 0,0
19.09.2020 10:00:00 13,7 8,2 14,0 21 11 29 16 E 1021,3 10 0,0
19.09.2020 09:00:00 13,3 8,1 12,9 21 11 29 16 E 1021,2 10 0,0
19.09.2020 08:00:00 12,7 7,8 12,0 22 12 32 18 E 1021,0 10 0,0
19.09.2020 07:00:00 12,2 8,3 11,2 22 12 32 18 E 1020,8 10 0,0
19.09.2020 06:00:00 12,0 8,1 11,0 22 12 32 18 E 1021,2 10 0,0
19.09.2020 05:00:00 12,3 8,4 11,4 22 12 32 18 ENE 1021,6 10 0,0
19.09.2020 04:00:00 12,6 8,5 11,8 21 11 29 16 E 1022,1 10 0,0
19.09.2020 03:00:00 13,3 8,1 12,2 22 12 36 19 E 1022,7 10 0,0
19.09.2020 02:00:00 14,0 8,7 13,0 26 14 36 19 E 1023,0 10 0,0
19.09.2020 01:00:00 14,4 8,9 13,4 26 14 40 21 E 1023,3 10 0,0
19.09.2020 00:00:00 14,4 9,4 13,5 26 14 40 21 ENE 1023,9 10 0,0
18.09.2020 23:00:00 15,1 9,9 14,1 28 15 40 21 ENE 1023,9 10 0,0
18.09.2020 22:00:00 15,8 10,0 14,9 28 15 43 23 ENE 1024,2 10 0,0
18.09.2020 21:00:00 16,0 10,1 14,9 29 16 40 21 ENE 1024,2 10 0,0
18.09.2020 20:00:00 16,4 10,2 15,4 26 14 36 19 ENE 1023,9 10 0,0
18.09.2020 19:00:00 17,2 9,5 16,5 28 15 36 19 ENE 1024,1 10 0,0
18.09.2020 18:00:00 18,1 9,4 17,9 28 15 40 21 ENE 1023,9 10 0,0
18.09.2020 17:00:00 18,6 8,2 18,8 26 14 40 21 ENE 1024,5 10 0,0
18.09.2020 16:00:00 18,5 8,2 19,0 26 14 40 21 ENE 1025,0 10 0,0
18.09.2020 15:00:00 18,1 7,8 18,8 28 15 40 21 ENE 1025,7 10 0,0
18.09.2020 14:00:00 17,6 8,3 18,3 31 17 40 21 E 1026,2 10 0,0
18.09.2020 13:00:00 16,5 9,3 17,3 24 13 36 19 ENE 1026,9 10 0,0
18.09.2020 12:00:00 15,3 9,2 16,3 28 15 36 19 ENE 1027,4 10 0,0
18.09.2020 11:00:00 14,4 8,7 15,1 24 13 36 19 E 1027,9 10 0,0
18.09.2020 10:00:00 13,5 9,0 13,9 22 12 32 18 E 1028,0 10 0,0
18.09.2020 09:00:00 12,8 8,2 12,5 22 12 32 18 E 1027,7 10 0,0
18.09.2020 08:00:00 11,9 8,0 11,1 22 12 32 18 E 1027,6 10 0,0
18.09.2020 07:00:00 11,6 7,9 10,8 21 11 32 18 E 1027,5 10 0,0
18.09.2020 06:00:00 11,6 7,9 10,3 18 10 25 14 E 1027,4 10 0,0
18.09.2020 05:00:00 11,7 8,0 10,7 18 10 25 14 E 1027,7 10 0,0
18.09.2020 04:00:00 11,8 8,0 10,8 16 9 25 14 E 1028,3 10 0,0
18.09.2020 03:00:00 12,6 7,8 11,4 21 11 29 16 E 1028,7 10 0,0
18.09.2020 02:00:00 13,0 8,8 12,0 21 11 36 19 E 1028,9 10 0,0
18.09.2020 01:00:00 13,5 9,6 12,6 26 14 36 19 E 1029,2 10 0,0
18.09.2020 00:00:00 13,8 9,6 12,9 29 16 40 21 E 1029,4 10 0,0
17.09.2020 23:00:00 14,0 9,5 13,2 31 17 43 23 E 1029,6 10 0,0
17.09.2020 22:00:00 14,3 8,9 13,4 31 17 43 23 ENE 1029,6 10 0,0
17.09.2020 21:00:00 14,3 8,7 13,5 29 16 43 23 ENE 1029,4 10 0,0
17.09.2020 20:00:00 14,9 8,6 14,0 31 17 43 23 ENE 1029,2 10 0,0
17.09.2020 19:00:00 15,3 9,7 14,9 31 17 47 25 NE 1029,1 10 0,0
17.09.2020 18:00:00 16,1 9,7 16,1 29 16 43 23 NE 1029,2 10 0,0
17.09.2020 17:00:00 17,0 10,1 17,3 28 15 43 23 NE 1029,6 10 0,0
17.09.2020 16:00:00 17,3 8,4 17,5 24 13 32 18 NE 1030,0 10 0,0
17.09.2020 15:00:00 17,3 7,9 18,4 22 12 32 18 ENE 1030,6 10 0,0
17.09.2020 14:00:00 17,0 8,0 18,3 22 12 32 18 ENE 1030,9 10 0,0
17.09.2020 13:00:00 16,6 8,6 17,8 21 11 32 18 E 1031,2 10 0,0
17.09.2020 12:00:00 16,3 8,0 17,2 24 13 40 21 E 1031,4 10 0,0
17.09.2020 11:00:00 16,0 8,2 16,6 26 14 36 19 E 1031,4 10 0,0
17.09.2020 10:00:00 15,4 8,4 15,5 29 16 40 21 E 1031,2 10 0,0
17.09.2020 09:00:00 15,1 8,1 14,6 26 14 36 19 E 1030,4 10 0,0
17.09.2020 08:00:00 14,7 8,5 13,8 28 15 40 21 ENE 1030,0 10 0,0
17.09.2020 07:00:00 14,7 8,7 13,6 28 15 40 21 ENE 1029,4 10 0,0
17.09.2020 06:00:00 15,2 10,2 14,4 29 16 40 21 NE 1028,9 10 0,0
17.09.2020 05:00:00 15,7 11,0 15,0 18 10 32 18 NNE 1028,8 10 0,0
17.09.2020 04:00:00 15,4 11,5 14,6 18 10 32 18 NNE 1028,8 10 0,0
17.09.2020 03:00:00 15,5 11,3 14,3 18 10 32 18 NNE 1028,9 10 0,0
17.09.2020 02:00:00 14,5 10,1 13,8 16 9 36 19 NNE 1028,7 10 0,0
17.09.2020 01:00:00 14,6 9,7 13,6 18 10 36 19 NNE 1028,6 10 0,0
17.09.2020 00:00:00 14,0 9,5 13,2 22 12 36 19 NNE 1028,5 10 0,0
16.09.2020 23:00:00 14,6 10,2 13,8 22 12 36 19 N 1027,9 10 0,0
16.09.2020 22:00:00 14,8 10,4 14,1 22 12 43 23 N 1027,5 10 0,0
16.09.2020 21:00:00 14,8 11,2 14,3 21 11 40 21 NNE 1026,7 10 0,0
16.09.2020 20:00:00 15,3 12,2 14,8 16 9 32 18 NNE 1026,0 10 0,0
16.09.2020 19:00:00 16,5 13,1 16,3 16 9 40 21 N 1025,2 10 0,0
16.09.2020 18:00:00 17,0 14,1 17,0 22 12 40 21 NNE 1024,6 10 0,0
16.09.2020 17:00:00 17,8 15,1 17,9 24 13 40 21 NNE 1024,4 10 0,0
16.09.2020 16:00:00 18,4 15,0 18,7 22 12 40 21 NNE 1024,3 10 0,0
16.09.2020 15:00:00 20,3 16,3 21,0 22 12 32 18 N 1023,8 10 0,0
16.09.2020 14:00:00 20,6 16,2 21,9 15 8 29 16 N 1023,3 10 0,0
16.09.2020 13:00:00 21,1 16,0 21,6 18 10 32 18 N 1022,7 10 0,0
16.09.2020 12:00:00 20,7 15,8 20,9 21 11 29 16 NNE 1022,3 10 0,0
16.09.2020 11:00:00 19,6 15,4 19,9 15 8 29 16 N 1021,7 10 0,0
16.09.2020 10:00:00 19,2 15,6 19,5 16 9 29 16 NNE 1021,0 10 0,0
16.09.2020 09:00:00 17,6 15,7 16,9 13 7 25 14 N 1020,6 10 0,0
16.09.2020 08:00:00 16,8 15,3 16,1 13 7 25 14 N 1020,1 6 0,0
16.09.2020 07:00:00 16,9 16,2 16,7 18 10 32 18 NNE 1019,5 3,8 0,0
16.09.2020 06:00:00 16,8 16,2 16,4 15 8 29 16 NNE 1019,0 4,6 0,0
16.09.2020 05:00:00 17,4 16,2 17,0 18 10 32 18 N 1018,5 5 0,0
16.09.2020 04:00:00 18,2 16,6 17,7 16 9 29 16 NNE 1018,3 7 0,0
16.09.2020 03:00:00 18,9 16,1 18,2 16 9 29 16 NNE 1018,2 6 0,0
16.09.2020 02:00:00 19,2 15,6 18,5 18 10 29 16 NNE 1018,3 9 0,0
16.09.2020 01:00:00 20,1 16,2 18,8 15 8 25 14 NNE 1018,2 9 0,0
16.09.2020 00:00:00 19,3 17,6 18,5 11 6 22 12 N 1018,3 5 0,0
15.09.2020 23:00:00 20,3 18,7 19,0 9 5 18 10 N 1018,2 5 0,0
15.09.2020 22:00:00 19,7 18,6 18,7 11 6 18 10 NE 1018,1 3,8 0,0
15.09.2020 21:00:00 20,1 17,6 17,8 11 6 14 8 NE 1017,9 9 0,0
15.09.2020 20:00:00 19,2 17,4 18,0 8 4 14 8 NNE 1017,7 5 0,0
15.09.2020 19:00:00 20,9 18,8 21,0 11 6 14 8 NE 1017,5 5 0,0
15.09.2020 18:00:00 21,8 18,0 22,3 11 6 18 10 NE 1017,6 9 0,0
15.09.2020 17:00:00 22,6 17,4 23,6 11 6 18 10 NE 1017,9 9 0,0
15.09.2020 16:00:00 23,3 18,5 24,6 9 5 14 8 NE 1018,3 8 0,0
15.09.2020 15:00:00 24,2 19,1 25,7 11 6 14 8 NE 1018,6 5 0,0
15.09.2020 14:00:00 25,2 19,7 26,9 11 6 29 16 NE 1018,9 10 0,0
15.09.2020 13:00:00 25,1 19,3 26,4 8 4 11 6 ENE 1019,1 10 0,0
15.09.2020 12:00:00 23,5 19,0 24,6 8 4 11 6 ENE 1019,6 10 0,0
15.09.2020 11:00:00 21,8 17,6 22,8 8 4 11 6 ENE 1019,6 10 0,0
15.09.2020 10:00:00 21,2 17,6 21,8 4 2 7 4 - 1019,5 10 0,0
15.09.2020 09:00:00 18,9 17,2 18,2 2 1 7 4 - 1019,4 10 0,0
15.09.2020 08:00:00 17,8 16,5 15,8 8 4 11 6 E 1019,3 7 0,0
15.09.2020 07:00:00 16,7 16,2 14,1 5 3 7 4 E 1019,2 5 0,0
15.09.2020 06:00:00 16,8 16,5 14,6 5 3 7 4 ENE 1019,4 2,4 0,0
15.09.2020 05:00:00 16,8 16,4 14,5 9 5 11 6 ENE 1019,6 2,7 0,0
15.09.2020 04:00:00 16,9 16,5 15,4 9 5 11 6 ENE 1020,0 4,0 0,0
15.09.2020 03:00:00 16,7 16,2 15,2 9 5 11 6 NE 1020,3 4,0 0,0
15.09.2020 02:00:00 16,9 16,3 15,9 11 6 14 8 NE 1020,8 4,4 0,0

tt = temperature
td = dewpoint
tt 5cm = temperature 5cm
ff = wind speed
fx = gusts
dd = wind direction
ppp = reduced air pressure
vv = visibility
rr = precipitation

Next stations